Miscellaneous Local Product
Issued by NWS North Platte, NE

Home | Current Version | Previous Version | Graphics & Text | Print | Product List | Glossary On
Versions: 1 2 3 4 5 6 7 8 9 10 11 12 13 14 15 16 17 18 19 20 21 22 23 24 25 26 27 28 29 30 31 32 33 34 35 36 37 38 39 40 41 42 43 44 45 46 47 48 49 50
000
AXUS43 KLBF 241910
MISLBF


WESTERN AND NORTH CENTRAL NEBRASKA HOURLY WEATHER ROUNDUP
NATIONAL WEATHER SERVICE NORTH PLATTE NE
100 PM CST FRI FEB 24 2017

NOTE: "FAIR" INDICATES FEW OR NO CLOUDS BELOW 12,000 FEET WITH NO
SIGNIFICANT WEATHER AND/OR OBSTRUCTIONS TO VISIBILITY.

NOTE: STATIONS NOT REPORTING VARIABLES SUCH AS SKY/WEATHER OR
PRESSURE ARE PROVIDED BY RAWS AND APRS NETWORKS AND ARE NOT UNDER
NATIONAL WEATHER SERVICE QUALITY CONTROL.

...OBSERVATIONS IN AND NEAR THE EASTERN PANHANDLE OF NEBRASKA...

CITY           SKY/WX    TMP DP  RH WIND       PRES   REMARKS
PINE RIDGE     CLOUDY    22  17  81 CALM      30.07S
CHADRON        CLOUDY    22  15  75 N6        30.08S WCI  14
ALLIANCE       CLOUDY    21  15  78 NE12      30.01F WCI   9
SIDNEY         CLOUDY    23  17  78 NE10      30.00S WCI  12
CRESCENT LAKE    N/A     23  17  78 NE9         N/A  WCI  13
$$

...OBSERVATIONS IN NORTHERN NEBRASKA AND FAR SOUTHERN SOUTH DAKOTA...

CITY           SKY/WX    TMP DP  RH WIND       PRES   REMARKS
WINNER         PTSUNNY   26  14  60 N16       30.06F WCI  14
VALENTINE      CLOUDY    21  12  68 NW15      30.06S WCI   8
THEDFORD       CLOUDY    22  13  70 N15       30.03F WCI   9
AINSWORTH      CLOUDY    21  16  82 N21       30.03F WCI   5
O`NEILL        MOSUNNY   24  16  74 N22       30.00S WCI   8
ORD            CLOUDY    23  13  65 N28G33    29.97F WCI   6
BROKEN BOW     CLOUDY    21  14  74 N25G33    29.99R WCI   4
VALENTINE NWR    N/A     20  17  87 N13G23      N/A  WCI   7
BUTTE            N/A     22  16  77 NW20G28     N/A  WCI   7
HALSEY           N/A     23  14  69 N9G20       N/A  WCI  13
CHAMBERS         N/A     31  14  48 N5G12       N/A  WCI  26
EWING            N/A     21  19  91 N20G26      N/A  WCI   6
$$

...OBSERVATIONS IN SOUTHWEST NEBRASKA AND FAR NORTHEAST COLORADO...

CITY           SKY/WX    TMP DP  RH WIND       PRES   REMARKS
HOLYOKE        FAIR      30  23  74 N8        30.01F WCI  23
IMPERIAL       CLOUDY    25  18  74 N20       30.02S WCI  11
OGALLALA       CLOUDY    26  18  70 N14       30.03S WCI  15
NORTH PLATTE   CLOUDY    23  12  62 N16G25    30.03S WCI  10
MCCOOK         CLOUDY    28  19  69 N26       29.99S WCI  13
LEXINGTON      CLOUDY    24  15  68 N25G32    29.99S WCI   7
STAPLETON        N/A     21  16  81 CALM        N/A
GOTHENBURG       N/A     22  13  68 NW15        N/A  WCI   9
CALLAWAY         N/A     21  17  84 N21         N/A  WCI   5
$$

...OBSERVATIONS IN CENTRAL LINCOLN COUNTY AREA...

CITY           SKY/WX    TMP DP  RH WIND       PRES   REMARKS
N.P. AIRPORT   CLOUDY    23  12  62 N16G25    30.03S WCI  10
N.P. DOWNTOWN    N/A     22  14  70 N10G21      N/A  WCI  11
N.P. SOUTHEAST   N/A     22  12  65 N12G22      N/A  WCI  11
N.P. HILLCREST   N/A     22  14  70 N20G26      N/A  WCI   7
$$

...SOME OBSERVATIONS FROM AROUND THE REGION...

CITY           SKY/WX    TMP DP  RH WIND       PRES   REMARKS
LARAMIE        CLOUDY    15   7  70 SE16      29.81S WCI  -1
CHEYENNE       CLOUDY    17   9  70 E7        29.91S WCI   8
DENVER         LGT SNOW  22  13  68 CALM      29.94F
AKRON          LGT SNOW  22  18  85 N12       29.97F VSB 1   WCI  10
SCOTTSBLUFF    LGT SNOW  23  16  74 SE3       30.04S
RAPID CITY     CLOUDY    21  15  78 CALM      30.07F
BISMARCK       SUNNY     30  17  58 NW9       30.14F WCI  22
PIERRE         CLOUDY    29  13  51 N14       30.09F WCI  18
SIOUX FALLS    CLOUDY    26  13  57 N21G35    29.92F WCI  12
OMAHA          LGT SNOW  25  20  81 N29G38    29.81S VSB 3/4 WCI   8
GRAND ISLAND   CLOUDY    22  16  78 N26       29.96R WCI   5
KANSAS CITY    DRIZZLE   35  31  85 NW14      29.73R FOG     WCI  26
WICHITA        CLOUDY    36  24  62 NW23G32   29.89F WCI  24
OKLAHOMA CITY  SUNNY     48  24  39 NW20G28   29.91F
DALLAS         MOSUNNY   59  35  40 NW16G23   29.87F
AMARILLO       SUNNY     42  16  34 NW8G23    29.95F
DODGE CITY     CLOUDY    37  18  46 N23G30    29.93F WCI  26
HAYS           FLURRIES  31  24  75 N21       29.96S WCI  18
GOODLAND       LGT SNOW  28  22  78 N18       29.97S WCI  15
$$




USA.gov is the U.S. government's official web portal to all federal, state and local government web resources and services.